Weather History for Galesburg, IL

Change the Weather History Date:

Thursday, October 11, 2012

  Actual Average Record
Temperature  
Mean Temperature 52 °F -  
Max Temperature 68 °F 65 °F 88 °F (1962)
Min Temperature 35 °F 43 °F 27 °F (1987)
Degree Days  
Heating Degree Days 14    
Growing Degree Days 2 (Base 50)    
Moisture  
Dew Point 35 °F    
Average Humidity 58    
Maximum Humidity 83    
Minimum Humidity 32    
Precipitation  
Precipitation 0.31 in - - ()
Sea Level Pressure  
Sea Level Pressure 30.14 in    
Wind  
Wind Speed 9 mph (SSW)    
Max Wind Speed 18 mph    
Max Gust Speed 24 mph    
Visibility 10 miles    
Events      
Averages and records for this station are not official NWS values.
T = Trace of Precipitation, MM = Missing Value Source: NWS Daily Summary

Daily Weather History Graph

Daily Weather History Graph

Search for Another Location

Airport:

Trip Planner

Search our weather history database for the weather conditions in past years. The results will help you decide how hot, cold, wet, or windy it might be!

Date:

Astronomy

Oct. 11, 2012 Rise Set
Actual Time 7:09 AM CDT 6:26 PM CDT
Civil Twilight 6:41 AM CDT 6:54 PM CDT
Nautical Twilight 6:09 AM CDT 7:25 PM CDT
Astronomical Twilight 5:38 AM CDT 7:57 PM CDT
Moon 2:46 AM CDT (10/11) 4:04 PM CDT (10/11)
Length of Visible Light 12h 12m
Length of Day
11h 17m
Waning Crescent, 18% of the Moon is Illuminated
Oct 11
Waning Crescent
Oct 15
New
Oct 21
First Quarter
Oct 29
Full
Nov 6
Last Quarter

Hourly Weather History & Observations

Time (CDT) Temp. Windchill Dew Point Humidity Pressure Visibility Wind Dir Wind Speed Gust Speed Precip Events Conditions
12:15 AM 38.3 °F 33.9 °F 29.8 °F 72% 30.15 in 10.0 mi South 5.8 mph - N/A   Clear
12:35 AM 37.9 °F 34.4 °F 30.2 °F 74% 30.16 in 10.0 mi South 4.6 mph - N/A   Clear
12:55 AM 37.8 °F 33.3 °F 30.7 °F 76% 30.16 in 10.0 mi South 5.8 mph - N/A   Clear
1:15 AM 37.8 °F 33.3 °F 30.7 °F 76% 30.16 in 10.0 mi South 5.8 mph - N/A   Clear
1:35 AM 37.8 °F 32.5 °F 30.7 °F 76% 30.15 in 10.0 mi South 6.9 mph - N/A   Clear
1:55 AM 36.7 °F 32.0 °F 30.6 °F 78% 30.15 in 10.0 mi South 5.8 mph - N/A   Clear
2:15 AM 37.0 °F 32.4 °F 30.6 °F 77% 30.15 in 10.0 mi South 5.8 mph - N/A   Clear
2:35 AM 36.7 °F 32.0 °F 30.6 °F 78% 30.15 in 10.0 mi South 5.8 mph - N/A   Clear
2:55 AM 36.5 °F 31.0 °F 30.7 °F 80% 30.14 in 10.0 mi South 6.9 mph - N/A   Clear
3:15 AM 36.9 °F 31.4 °F 30.7 °F 79% 30.14 in 10.0 mi South 6.9 mph - N/A   Clear
3:35 AM 36.5 °F 31.8 °F 30.9 °F 80% 30.15 in 10.0 mi South 5.8 mph - N/A   Clear
3:55 AM 37.0 °F 32.4 °F 31.1 °F 79% 30.15 in 10.0 mi South 5.8 mph - N/A   Clear
4:15 AM 36.3 °F 30.1 °F 30.9 °F 81% 30.15 in 10.0 mi South 8.1 mph - N/A   Clear
4:35 AM 36.9 °F 30.7 °F 31.1 °F 80% 30.15 in 10.0 mi South 8.1 mph - N/A   Clear
4:55 AM 36.7 °F 29.9 °F 31.1 °F 80% 30.15 in 10.0 mi South 9.2 mph - N/A   Clear
5:15 AM 37.4 °F 31.4 °F 31.1 °F 78% 30.15 in 10.0 mi South 8.1 mph - N/A   Clear
5:35 AM 37.4 °F 31.4 °F 31.1 °F 78% 30.15 in 10.0 mi South 8.1 mph - N/A   Clear
5:55 AM 37.4 °F 32.1 °F 31.1 °F 78% 30.14 in 10.0 mi South 6.9 mph - N/A   Clear
6:15 AM 37.2 °F 31.9 °F 31.1 °F 79% 30.14 in 10.0 mi South 6.9 mph - N/A   Clear
6:35 AM 37.4 °F 32.1 °F 31.1 °F 78% 30.13 in 10.0 mi South 6.9 mph - N/A   Clear
6:55 AM 37.4 °F 32.1 °F 31.1 °F 78% 30.14 in 10.0 mi South 6.9 mph - N/A   Clear
7:15 AM 35.6 °F 30.7 °F 30.9 °F 83% 30.15 in 10.0 mi SSW 5.8 mph - N/A   Clear
7:35 AM 37.2 °F 31.9 °F 31.3 °F 79% 30.15 in 10.0 mi South 6.9 mph - N/A   Clear
7:55 AM 38.3 °F 33.2 °F 31.6 °F 77% 30.15 in 10.0 mi South 6.9 mph - N/A   Clear
8:15 AM 40.1 °F 34.7 °F 32.0 °F 73% 30.15 in 10.0 mi South 8.1 mph - N/A   Clear
8:35 AM 41.9 °F 35.4 °F 32.7 °F 70% 30.15 in 10.0 mi South 11.5 mph - N/A   Clear
8:55 AM 43.9 °F 37.5 °F 33.1 °F 66% 30.15 in 10.0 mi South 12.7 mph - N/A   Clear
9:15 AM 45.7 °F 40.2 °F 34.9 °F 66% 30.14 in 10.0 mi SSW 11.5 mph - N/A   Clear
9:35 AM 48.6 °F - 35.8 °F 61% 30.15 in 10.0 mi South 12.7 mph - N/A   Clear
9:55 AM 51.4 °F - 36.5 °F 57% 30.15 in 10.0 mi SSW 11.5 mph 19.6 mph N/A   Clear
10:15 AM 53.6 °F - 36.3 °F 52% 30.16 in 10.0 mi SSW 11.5 mph 17.3 mph N/A   Clear
10:35 AM 55.6 °F - 36.7 °F 49% 30.16 in 10.0 mi SSW 13.8 mph - 0.05 in   Clear
10:55 AM 57.6 °F - 36.7 °F 46% 30.15 in 10.0 mi SSW 16.1 mph 21.9 mph 0.31 in   Clear
11:15 AM 58.3 °F - 35.8 °F 43% 30.14 in 10.0 mi SW 18.4 mph 23.0 mph N/A   Clear
11:35 AM 59.2 °F - 35.6 °F 41% 30.14 in 10.0 mi SSW 17.3 mph - N/A   Clear
11:55 AM 60.6 °F - 36.3 °F 40% 30.13 in 10.0 mi SW 15.0 mph - N/A   Clear
12:15 PM 61.7 °F - 36.1 °F 39% 30.12 in 10.0 mi SSW 16.1 mph - N/A   Clear
12:35 PM 62.6 °F - 35.6 °F 37% 30.11 in 10.0 mi SSW 16.1 mph 19.6 mph N/A   Clear
12:55 PM 63.7 °F - 36.3 °F 36% 30.11 in 10.0 mi SSW 13.8 mph 23.0 mph N/A   Clear
1:15 PM 64.2 °F - 36.3 °F 36% 30.10 in 10.0 mi SSW 13.8 mph 20.7 mph N/A   Clear
1:35 PM 65.3 °F - 36.1 °F 34% 30.10 in 10.0 mi SSW 13.8 mph 23.0 mph N/A   Clear
1:55 PM 66.2 °F - 36.7 °F 34% 30.09 in 10.0 mi SSW 16.1 mph - N/A   Clear
2:15 PM 66.9 °F - 36.0 °F 32% 30.08 in 10.0 mi SW 18.4 mph 24.2 mph N/A   Clear
2:35 PM 67.3 °F - 36.1 °F 32% 30.07 in 10.0 mi SW 13.8 mph 18.4 mph N/A   Clear
2:55 PM 67.6 °F - 36.5 °F 32% 30.06 in 10.0 mi SSW 12.7 mph 17.3 mph N/A   Clear
3:15 PM 67.6 °F - 36.3 °F 32% 30.06 in 10.0 mi SW 13.8 mph 19.6 mph N/A   Clear
3:35 PM 68.0 °F - 37.4 °F 33% 30.06 in 10.0 mi SW 15.0 mph - N/A   Clear
3:55 PM 67.8 °F - 36.5 °F 32% 30.06 in 10.0 mi SW 10.4 mph - N/A   Clear
4:15 PM 67.6 °F - 37.6 °F 33% 30.06 in 10.0 mi WSW 11.5 mph 16.1 mph N/A   Clear
4:35 PM 66.9 °F - 36.7 °F 33% 30.07 in 10.0 mi WSW 8.1 mph - N/A   Clear
4:55 PM 66.2 °F - 37.4 °F 35% 30.07 in 10.0 mi WSW 5.8 mph - N/A   Clear
5:15 PM 65.5 °F - 38.5 °F 37% 30.08 in 10.0 mi WSW 6.9 mph - N/A   Clear
5:35 PM 63.7 °F - 40.5 °F 43% 30.07 in 10.0 mi SW 4.6 mph - N/A   Clear
5:55 PM 63.0 °F - 40.3 °F 43% 30.07 in 10.0 mi SW 3.5 mph - N/A   Clear
6:15 PM 62.6 °F - 41.0 °F 45% 30.07 in 10.0 mi SSW 3.5 mph - N/A   Clear
6:35 PM 60.8 °F - 41.5 °F 49% 30.07 in 10.0 mi South 3.5 mph - N/A   Clear
6:55 PM 60.1 °F - 42.1 °F 51% 30.08 in 10.0 mi South 3.5 mph - N/A   Clear
7:15 PM 60.8 °F - 40.5 °F 47% 30.10 in 10.0 mi SW 3.5 mph - N/A   Clear
7:35 PM 59.9 °F - 40.8 °F 49% 30.11 in 10.0 mi NNW 6.9 mph - N/A   Scattered Clouds
7:55 PM 59.0 °F - 41.0 °F 51% 30.13 in 10.0 mi North 8.1 mph - N/A   Scattered Clouds
8:15 PM 58.1 °F - 38.8 °F 49% 30.14 in 10.0 mi North 12.7 mph - N/A   Scattered Clouds
8:35 PM 57.0 °F - 37.6 °F 48% 30.14 in 10.0 mi North 13.8 mph - N/A   Clear
8:55 PM 55.8 °F - 37.9 °F 51% 30.16 in 10.0 mi NNE 13.8 mph - N/A   Mostly Cloudy
9:15 PM 54.5 °F - 37.6 °F 53% 30.19 in 10.0 mi North 13.8 mph - N/A   Mostly Cloudy
9:35 PM 53.1 °F - 38.3 °F 57% 30.20 in 10.0 mi North 10.4 mph - N/A   Scattered Clouds
9:55 PM 52.3 °F - 38.7 °F 60% 30.20 in 10.0 mi North 11.5 mph - N/A   Mostly Cloudy
10:15 PM 51.6 °F - 38.7 °F 61% 30.22 in 10.0 mi North 10.4 mph - N/A   Overcast
10:35 PM 51.8 °F - 39.2 °F 62% 30.22 in 10.0 mi NNE 11.5 mph - N/A   Overcast
10:55 PM 50.2 °F - 37.9 °F 63% 30.24 in 10.0 mi NNE 11.5 mph 16.1 mph N/A   Overcast
11:15 PM 47.7 °F - 37.9 °F 69% 30.24 in 10.0 mi NNE 10.4 mph - N/A   Overcast
11:35 PM 48.4 °F - 37.4 °F 66% 30.26 in 10.0 mi NNE 15.0 mph 20.7 mph N/A   Overcast
11:55 PM 48.6 °F - 37.4 °F 65% 30.26 in 10.0 mi North 11.5 mph - N/A   Overcast